[[{"header":{"parameterUnit":"m.s-1","parameterCategory":2,"la1":30.2991,"la2":30.254,"lo1":-89.0895,"lo2":-89.0444,"dy":0.0017,"dx":0.0017,"nx":28,"ny":28,"refTime":"2023-10-08T09:00:00:Z","depth":"0","parameterNumber":2,"parameterNumberName":"U-component_of_CURRENTS"},"data":[0,0,0,0,0,0,0,0,0,0,0,0,0,0,0,0,0,0,0,0,0,0,0,0,0,0,0,0,0,0,0,0,0,0,0,0,0,0,0,0,0,0,0,0,0,0,0,0,0,0,0,0,0,0,0,0,0,0,0.205,0.205,0,0.2088,0.2089,0.2089,0.2105,0.2105,0.2105,0.2105,0.2097,0.2097,0.2097,0,0,0,0,0,0,0,0,0,0,0,0,0,0.1985,0.1986,0.205,0.2051,0.2051,0.2088,0.2089,0.2089,0.2105,0.2105,0.2105,0.2105,0.2098,0.2097,0.2097,0,0,0,0,0,0,0,0,0,0,0,0,0,0.2015,0.1986,0.205,0.2065,0.2067,0.2088,0.2089,0.2089,0.2105,0.2105,0.2105,0.2105,0.2098,0.2097,0.2097,0.209,0,0,0.2095,0.2095,0,0,0,0,0,0,0,0,0.2013,0.2017,0.2062,0.2064,0.2066,0.2094,0.2063,0.2088,0.2105,0.2088,0.2105,0.2105,0.2093,0.2093,0.2098,0.209,0.209,0.2095,0.2095,0.2095,0.2095,0,0,0,0,0,0,0,0.2011,0.2015,0.2063,0.2063,0.2066,0.2068,0.2073,0.2068,0.2087,0.209,0.2091,0.2099,0.2094,0.2098,0.2097,0.209,0.2095,0.2095,0.2095,0.2094,0.2103,0.2104,0,0,0,0,0,0,0.2011,0.2014,0.2062,0.2064,0.2042,0.207,0.2074,0.2083,0.2088,0.209,0.2099,0.21,0.2099,0.2098,0.2097,0.212,0.2095,0.2094,0.2094,0.2103,0.2103,0.2104,0,0,0,0,0,0,0.2009,0.2015,0.206,0.2041,0.2048,0.2071,0.208,0.2084,0.2091,0.2096,0.2096,0.2104,0.2099,0.2098,0.2104,0.2119,0.2094,0.2094,0.2102,0.2103,0.2104,0.2146,0,0,0,0,0,0,0.2007,0.2014,0.2018,0.2041,0.2049,0.2079,0.2081,0.2084,0.2097,0.2098,0.21,0.2099,0.2099,0.2105,0.2103,0.2118,0.2093,0.2101,0.2102,0.2103,0.2144,0.2148,0.2152,0,0,0,0,0,0.2005,0.2012,0.2017,0.2023,0.2054,0.208,0.2084,0.2099,0.2097,0.2105,0.2108,0.2099,0.211,0.2105,0.2103,0.2118,0.2101,0.2102,0.2103,0.2142,0.2147,0.2152,0,0,0,0,0,0,0.1983,0.2015,0.2022,0.2037,0.2059,0.2083,0.2092,0.2099,0.2107,0.2107,0.2105,0.2105,0.2117,0.2108,0.2102,0.2122,0.2104,0.2105,0.2134,0.2139,0.2143,0.2148,0.2093,0,0,0,0,0,0.1981,0.1996,0.2024,0.2037,0.2049,0.2068,0.2079,0.2091,0.2104,0.2108,0.211,0.2112,0.212,0.2122,0.2125,0.2131,0.2139,0.2139,0.2143,0.2146,0.2149,0.2178,0.2185,0.2108,0.2108,0.2108,0,0,0.1974,0.1995,0.2002,0.2034,0.2051,0.2073,0.2075,0.2096,0.2114,0.2104,0.2122,0.2124,0.2125,0.2141,0.2145,0.2135,0.2175,0.2148,0.2151,0.2152,0.218,0.2187,0.2194,0.2108,0.2108,0.2108,0,0,0.1974,0.199,0.2004,0.2025,0.2056,0.2074,0.208,0.2106,0.2118,0.2134,0.2137,0.215,0.2152,0.2166,0.217,0.2193,0.2195,0.2191,0.2215,0.2243,0.225,0.2256,0.2288,0.2296,0.2193,0.2193,0.2193,0,0.1964,0.1988,0.2011,0.2032,0.2051,0.2075,0.2094,0.2114,0.2137,0.2148,0.2143,0.2168,0.2167,0.2197,0.221,0.2203,0.222,0.2199,0.225,0.2256,0.2261,0.2292,0.2301,0.2195,0.2195,0.2194,0.2194,0,0.1977,0.1997,0.2008,0.2046,0.2068,0.2089,0.2123,0.214,0.2153,0.2172,0.22,0.2207,0.2223,0.2227,0.2226,0.2266,0.2268,0.2253,0.224,0.2272,0.2302,0.231,0.2198,0.2197,0.2197,0.2196,0,0,0.1951,0.2006,0.2009,0.2028,0.2076,0.2095,0.2129,0.2168,0.219,0.2212,0.2241,0.2263,0.227,0.2276,0.228,0.2304,0.2362,0.2298,0.2299,0.2335,0.2434,0.2454,0.2465,0.2361,0.2362,0.2363,0.2444,0,0.1953,0.1991,0.2019,0.2055,0.2079,0.2113,0.2146,0.2183,0.2211,0.2244,0.2267,0.2293,0.229,0.23,0.2328,0.2353,0.2384,0.2342,0.2393,0.2395,0.2414,0.2476,0.243,0.25,0.2452,0.2454,0.2455,0,0.1951,0.1982,0.2015,0.2067,0.208,0.2105,0.2158,0.2188,0.2244,0.2267,0.2303,0.2322,0.2371,0.2353,0.2426,0.2402,0.2423,0.2439,0.2442,0.2451,0.2431,0.2458,0.2517,0.2477,0.2468,0.2467,0.2466,0,0.1922,0.1975,0.2002,0.2019,0.2083,0.2102,0.2135,0.2192,0.222,0.2282,0.2312,0.2366,0.2399,0.2437,0.248,0.2458,0.2558,0.2527,0.2567,0.2568,0.2534,0.253,0.2563,0.2577,0.2576,0.2576,0.2576,0,0.1912,0.193,0.199,0.2004,0.2034,0.2087,0.2121,0.2161,0.2224,0.2265,0.232,0.2372,0.2422,0.2483,0.2507,0.2581,0.2585,0.2592,0.2598,0.2548,0.2545,0.2511,0.2481,0.2579,0.2579,0.2578,0.2577,0,0.187,0.1911,0.194,0.2004,0.202,0.2039,0.21,0.2134,0.22,0.2255,0.2278,0.2387,0.2482,0.2534,0.2607,0.2624,0.2627,0.2695,0.2639,0.2638,0.2632,0.2606,0.2555,0.2468,0.2758,0.2759,0.276,0,0.1851,0.1866,0.1921,0.1938,0.1964,0.2001,0.2034,0.2106,0.2149,0.2269,0.2304,0.2417,0.2507,0.2646,0.2698,0.2767,0.2667,0.2747,0.2693,0.2649,0.2625,0.251,0.243,0.2666,0.2666,0.2666,0.2666,0,0.1812,0.1833,0.1859,0.1893,0.1926,0.1959,0.2014,0.2037,0.2132,0.2204,0.232,0.2403,0.257,0.265,0.2749,0.2776,0.2644,0.2751,0.2715,0.2576,0.2443,0.2356,0.2597,0.2667,0.2667,0.2667,0.2667,0.2667,0.1774,0.178,0.1816,0.1845,0.1878,0.1909,0.1914,0.1995,0.2056,0.2151,0.2281,0.2405,0.257,0.2729,0.2734,0.274,0.2673,0.2687,0.2668,0.2562,0.2449,0.2704,0.2774,0.2775,0.2775,0.2776,0.2776,0,0.1724,0.1744,0.177,0.1795,0.1806,0.1849,0.1897,0.1904,0.1958,0.2111,0.2219,0.2417,0.2535,0.2636,0.2735,0.2676,0.2525,0.2605,0.2424,0.2352,0.2606,0.2574,0.2593,0.2593,0.2593,0.2593,0.2593,0.2593,0.1699,0.1702,0.172,0.1717,0.1736,0.1723,0.1735,0.177,0.1863,0.1994,0.2127,0.2268,0.2511,0.2728,0.2724,0.2648,0.241,0.2345,0.2281,0.2479,0.2483,0.2487,0.2451,0.2443,0.2443,0.1936,0.1933,0.193]},{"header":{"parameterUnit":"m.s-1","parameterCategory":2,"la1":30.2991,"la2":30.254,"lo1":-89.0895,"lo2":-89.0444,"dy":0.0017,"dx":0.0017,"nx":28,"ny":28,"refTime":"2023-10-08T09:00:00:Z","depth":"0","parameterNumber":3,"parameterNumberName":"V-component_of_CURRENTS"},"data":[0,0,0,0,0,0,0,0,0,0,0,0,0,0,0,0,0,0,0,0,0,0,0,0,0,0,0,0,0,0,0,0,0,0,0,0,0,0,0,0,0,0,0,0,0,0,0,0,0,0,0,0,0,0,0,0,0,0,-0.0397,-0.0398,0,-0.0472,-0.0472,-0.0473,-0.053,-0.053,-0.0531,-0.0531,-0.0624,-0.0626,-0.0628,0,0,0,0,0,0,0,0,0,0,0,0,0,-0.0366,-0.0366,-0.0397,-0.0398,-0.0399,-0.0471,-0.0472,-0.0474,-0.053,-0.053,-0.0531,-0.0532,-0.0623,-0.0626,-0.0628,0,0,0,0,0,0,0,0,0,0,0,0,0,-0.0404,-0.0366,-0.0397,-0.0435,-0.0439,-0.0471,-0.0473,-0.0474,-0.053,-0.053,-0.0531,-0.0532,-0.0623,-0.0626,-0.0629,-0.0632,0,0,-0.0638,-0.0639,0,0,0,0,0,0,0,0,-0.0402,-0.0405,-0.0429,-0.0433,-0.0437,-0.0492,-0.0496,-0.0528,-0.053,-0.0496,-0.0531,-0.0532,-0.0581,-0.0587,-0.06,-0.0637,-0.0641,-0.0638,-0.064,-0.0641,-0.0642,0,0,0,0,0,0,0,-0.0399,-0.0403,-0.0427,-0.043,-0.0435,-0.0471,-0.0476,-0.0502,-0.0534,-0.0499,-0.0503,-0.0511,-0.0584,-0.0597,-0.0603,-0.0642,-0.0638,-0.0641,-0.0642,-0.0644,-0.0722,-0.0722,0,0,0,0,0,0,-0.0385,-0.04,-0.0424,-0.0429,-0.0421,-0.047,-0.0477,-0.0474,-0.0533,-0.0543,-0.051,-0.0513,-0.0591,-0.0599,-0.0606,-0.0628,-0.0641,-0.0644,-0.0646,-0.0721,-0.0722,-0.0722,0,0,0,0,0,0,-0.0384,-0.0386,-0.0421,-0.0417,-0.0424,-0.047,-0.0466,-0.0475,-0.0491,-0.0541,-0.0552,-0.0517,-0.0592,-0.0602,-0.0636,-0.0631,-0.0645,-0.0648,-0.0721,-0.0721,-0.0722,-0.0663,0,0,0,0,0,0,-0.0382,-0.0385,-0.0377,-0.0415,-0.0423,-0.0436,-0.0466,-0.0476,-0.0494,-0.0499,-0.0551,-0.0561,-0.0594,-0.0631,-0.0639,-0.0636,-0.065,-0.0721,-0.0721,-0.0722,-0.0664,-0.0661,-0.0658,0,0,0,0,0,-0.0381,-0.0365,-0.0376,-0.0379,-0.041,-0.0435,-0.0443,-0.0479,-0.0494,-0.0497,-0.0538,-0.0559,-0.064,-0.0634,-0.0643,-0.064,-0.072,-0.0721,-0.0722,-0.0666,-0.0662,-0.0658,0,0,0,0,0,0,-0.0347,-0.037,-0.0383,-0.0374,-0.0401,-0.0445,-0.0448,-0.0474,-0.0507,-0.0511,-0.0561,-0.0573,-0.0601,-0.063,-0.0622,-0.0666,-0.0684,-0.0686,-0.0638,-0.0635,-0.0632,-0.0602,-0.0653,0,0,0,0,0,-0.0334,-0.0328,-0.0361,-0.0355,-0.0363,-0.0404,-0.0418,-0.0442,-0.0478,-0.0493,-0.0532,-0.0574,-0.061,-0.0629,-0.0663,-0.0684,-0.0695,-0.0691,-0.0688,-0.0685,-0.0668,-0.0689,-0.0686,-0.0724,-0.0724,-0.0724,0,0,-0.032,-0.0331,-0.0329,-0.0348,-0.0369,-0.0376,-0.0414,-0.0429,-0.0439,-0.0497,-0.052,-0.0561,-0.0613,-0.064,-0.0655,-0.0664,-0.0679,-0.0685,-0.0682,-0.0667,-0.0689,-0.0686,-0.0682,-0.0724,-0.0724,-0.0724,0,0,-0.0291,-0.0297,-0.0285,-0.03,-0.0326,-0.0351,-0.0352,-0.0393,-0.0414,-0.0441,-0.0488,-0.0526,-0.0578,-0.0616,-0.0641,-0.0641,-0.0661,-0.0655,-0.0616,-0.0637,-0.0633,-0.063,-0.0629,-0.0627,-0.0655,-0.0655,-0.0655,0,-0.0273,-0.0261,-0.0287,-0.028,-0.0287,-0.0335,-0.0328,-0.0355,-0.0404,-0.0414,-0.044,-0.0516,-0.0565,-0.0596,-0.0603,-0.0632,-0.0638,-0.0623,-0.063,-0.0628,-0.0626,-0.0626,-0.0624,-0.0652,-0.0653,-0.0653,-0.0653,0,-0.024,-0.0231,-0.0223,-0.023,-0.0241,-0.0242,-0.0279,-0.0293,-0.0324,-0.0355,-0.039,-0.0458,-0.05,-0.0529,-0.0569,-0.0582,-0.0588,-0.062,-0.0632,-0.0618,-0.0619,-0.0618,-0.0648,-0.0649,-0.065,-0.0651,0,0,-0.0199,-0.0199,-0.0196,-0.0188,-0.0212,-0.0216,-0.0223,-0.0244,-0.0241,-0.0297,-0.0298,-0.0379,-0.0411,-0.0443,-0.0499,-0.0526,-0.0528,-0.0562,-0.0564,-0.0546,-0.0552,-0.0565,-0.0565,-0.0559,-0.0559,-0.0559,-0.0554,0,-0.0166,-0.0138,-0.015,-0.0128,-0.0117,-0.0149,-0.0151,-0.0174,-0.0204,-0.0217,-0.0285,-0.0314,-0.0381,-0.04,-0.0436,-0.0505,-0.0523,-0.0524,-0.0581,-0.0582,-0.0584,-0.0564,-0.0561,-0.0558,-0.0553,-0.0553,-0.0553,0,-0.0129,-0.0115,-0.0085,-0.007,-0.0067,-0.0064,-0.0062,-0.0069,-0.0101,-0.0124,-0.0159,-0.0209,-0.0259,-0.032,-0.0404,-0.0399,-0.0462,-0.0517,-0.0519,-0.0547,-0.0593,-0.0576,-0.0556,-0.0697,-0.0552,-0.0552,-0.0552,0,-0.0089,-0.0066,-0.0039,-0.0036,-0.0032,-0.0021,-0.0021,-0.004,-0.0032,-0.0061,-0.0059,-0.0124,-0.0153,-0.0237,-0.0352,-0.0374,-0.0435,-0.0485,-0.0549,-0.055,-0.0566,-0.0569,-0.0676,-0.0532,-0.0532,-0.0532,-0.0532,0,-0.0049,-0.0024,-0.0017,-0.0002,0.0035,0.0024,0.0055,0.0046,0.0045,0.0066,-0.0007,-0.0003,-0.0134,-0.0191,-0.0302,-0.0409,-0.0396,-0.0524,-0.0549,-0.0546,-0.0547,-0.0687,-0.0769,-0.0532,-0.0532,-0.0532,-0.0532,0,-0.0011,-0.0008,0.0029,0.0047,0.0054,0.0081,0.0106,0.0132,0.012,0.0149,0.0146,0.0098,0.0025,-0.0101,-0.023,-0.0339,-0.053,-0.0491,-0.0466,-0.0488,-0.0689,-0.0767,-0.0907,-0.0967,-0.0554,-0.0554,-0.0555,0,0.001,0.0031,0.0066,0.0091,0.01,0.0132,0.0159,0.0164,0.0196,0.0211,0.0237,0.0188,0.0165,-0.0016,-0.0211,-0.0379,-0.0532,-0.05,-0.0556,-0.0685,-0.0791,-0.0872,-0.0918,-0.0549,-0.0549,-0.0549,-0.0549,0,0.0053,0.0063,0.0092,0.0141,0.0176,0.0216,0.0257,0.0296,0.0313,0.0346,0.0389,0.0382,0.0213,0.0056,-0.0182,-0.0324,-0.061,-0.0509,-0.0657,-0.0799,-0.088,-0.0954,-0.0555,-0.055,-0.055,-0.055,-0.055,-0.055,0.0086,0.0113,0.0151,0.0198,0.0242,0.0299,0.0341,0.0398,0.0466,0.0541,0.052,0.0553,0.0298,-0.0022,-0.0236,-0.062,-0.0635,-0.074,-0.0821,-0.0888,-0.0964,-0.0555,-0.0578,-0.0578,-0.0578,-0.0578,-0.0578,0,0.013,0.0158,0.0206,0.0264,0.0319,0.033,0.0408,0.0462,0.0557,0.0653,0.07,0.0623,0.0289,-0.006,-0.0573,-0.0865,-0.0995,-0.1034,-0.1156,-0.1185,-0.0827,-0.0845,-0.091,-0.091,-0.091,-0.091,-0.091,-0.0909,0.0156,0.0209,0.023,0.032,0.0362,0.0437,0.0485,0.0574,0.066,0.0788,0.0853,0.0865,0.0595,-0.0355,-0.1038,-0.1199,-0.1415,-0.1471,-0.1574,-0.1342,-0.1321,-0.1301,-0.1339,-0.1506,-0.1507,-0.1901,-0.1905,-0.1908]}],[{"header":{"parameterUnit":"m.s-1","parameterCategory":2,"la1":30.2991,"la2":30.254,"lo1":-89.0895,"lo2":-89.0444,"dy":0.0017,"dx":0.0017,"nx":28,"ny":28,"refTime":"2023-10-08T09:00:00:Z","depth":"2","parameterNumber":2,"parameterNumberName":"U-component_of_CURRENTS"},"data":[0,0,0,0,0,0,0,0,0,0,0,0,0,0,0,0,0,0,0,0,0,0,0,0,0,0,0,0,0,0,0,0,0,0,0,0,0,0,0,0,0,0,0,0,0,0,0,0,0,0,0,0,0,0,0,0,0,0,0.1937,0.1938,0,0.1994,0.1994,0.1994,0.2026,0.2026,0.2027,0.2028,0.2025,0.2025,0.2024,0,0,0,0,0,0,0,0,0,0,0,0,0,0.1864,0.1864,0.1936,0.1938,0.1939,0.1994,0.1994,0.1994,0.2026,0.2026,0.2027,0.2028,0.2026,0.2025,0.2024,0,0,0,0,0,0,0,0,0,0,0,0,0,0.19,0.1865,0.1936,0.1966,0.1969,0.1994,0.1994,0.1995,0.2025,0.2026,0.2027,0.2028,0.2026,0.2025,0.2024,0.2,0,0,0.2021,0.2021,0,0,0,0,0,0,0,0,0.1898,0.1902,0.196,0.1964,0.1968,0.2009,0.1968,0.1995,0.2025,0.1998,0.2028,0.2029,0.2018,0.2017,0.2019,0.1999,0.1999,0.2021,0.2021,0.202,0.202,0,0,0,0,0,0,0,0.1895,0.19,0.1953,0.1961,0.1966,0.198,0.1985,0.1973,0.1996,0.2,0.2004,0.202,0.2019,0.2019,0.2019,0.1999,0.2021,0.202,0.202,0.2019,0.2025,0.2025,0,0,0,0,0,0,0.1899,0.1897,0.1951,0.1956,0.1941,0.1981,0.1987,0.199,0.1998,0.2002,0.2019,0.2021,0.2021,0.202,0.2019,0.2051,0.202,0.2019,0.2019,0.2024,0.2025,0.2026,0,0,0,0,0,0,0.1897,0.1902,0.1949,0.1933,0.1941,0.1982,0.1985,0.1991,0.2002,0.2014,0.2016,0.2027,0.2021,0.202,0.2026,0.2049,0.2019,0.2018,0.2023,0.2024,0.2025,0.2077,0,0,0,0,0,0,0.1894,0.1901,0.1907,0.1933,0.1942,0.1971,0.1985,0.1991,0.2013,0.2016,0.202,0.2021,0.2022,0.2028,0.2025,0.2047,0.2017,0.2022,0.2024,0.2025,0.2074,0.208,0.2084,0,0,0,0,0,0.1891,0.19,0.1906,0.1914,0.1948,0.1972,0.1976,0.2005,0.2012,0.2017,0.2028,0.2021,0.2035,0.2027,0.2024,0.2047,0.2022,0.2023,0.2025,0.2072,0.2079,0.2084,0,0,0,0,0,0,0.1872,0.1905,0.1913,0.1931,0.1952,0.1979,0.1993,0.2005,0.2016,0.2023,0.2023,0.2024,0.2042,0.203,0.2022,0.2052,0.2029,0.203,0.2066,0.2072,0.2077,0.2075,0.2016,0,0,0,0,0,0.187,0.1886,0.1913,0.1928,0.1937,0.1961,0.1976,0.1996,0.2012,0.2018,0.2023,0.203,0.2042,0.2047,0.205,0.2056,0.2058,0.207,0.2075,0.208,0.2076,0.2106,0.2114,0.2031,0.2031,0.2031,0,0,0.1865,0.189,0.1896,0.1926,0.1942,0.1961,0.1971,0.1997,0.2019,0.2013,0.2036,0.2043,0.2047,0.2068,0.2075,0.2064,0.2106,0.2082,0.2085,0.2079,0.2109,0.2117,0.2124,0.2032,0.2032,0.2032,0,0,0.1869,0.1883,0.1896,0.1915,0.1952,0.1968,0.1976,0.2004,0.2021,0.2041,0.2053,0.2072,0.2077,0.2096,0.2103,0.213,0.213,0.2135,0.216,0.219,0.2197,0.2203,0.2225,0.2233,0.2139,0.2139,0.2139,0,0.1865,0.1884,0.1904,0.1925,0.1947,0.197,0.1989,0.2009,0.2038,0.2055,0.2055,0.2091,0.2092,0.2131,0.2148,0.2142,0.2157,0.214,0.2197,0.2203,0.2209,0.223,0.2238,0.2142,0.2141,0.2141,0.2141,0,0.1877,0.1896,0.1905,0.1939,0.1963,0.1983,0.2017,0.2038,0.2059,0.2083,0.2122,0.2132,0.2156,0.2165,0.2165,0.2211,0.221,0.2201,0.2184,0.2221,0.224,0.2247,0.2146,0.2145,0.2144,0.2143,0,0,0.1849,0.1903,0.1904,0.1926,0.1973,0.1994,0.2032,0.2071,0.2099,0.2129,0.2167,0.2196,0.2207,0.2216,0.2226,0.225,0.2306,0.2247,0.2247,0.2272,0.2377,0.2336,0.234,0.2317,0.2318,0.2319,0.2378,0,0.1848,0.189,0.1919,0.1956,0.1978,0.2016,0.205,0.2095,0.2127,0.2166,0.2197,0.2232,0.2227,0.2247,0.2275,0.2302,0.2327,0.2291,0.2334,0.2334,0.2297,0.2347,0.2196,0.2232,0.2385,0.2386,0.2387,0,0.1844,0.1876,0.1913,0.1974,0.1985,0.2013,0.2073,0.211,0.2172,0.22,0.2244,0.2267,0.2321,0.2302,0.2371,0.2354,0.2366,0.2379,0.2381,0.2327,0.2307,0.2218,0.224,0.2399,0.2398,0.2397,0.2396,0,0.1815,0.1871,0.1902,0.1921,0.199,0.2016,0.2055,0.2118,0.2151,0.2224,0.2255,0.2317,0.2355,0.2389,0.2419,0.2406,0.2484,0.2467,0.2439,0.2436,0.2305,0.2288,0.2503,0.2503,0.2503,0.2503,0.2503,0,0.1802,0.1824,0.1891,0.1905,0.1944,0.2006,0.2048,0.2095,0.2164,0.2208,0.2271,0.2311,0.238,0.2429,0.2444,0.2472,0.2509,0.2451,0.2453,0.2319,0.2303,0.2437,0.2429,0.2505,0.2504,0.2504,0.2504,0,0.1762,0.1805,0.1841,0.191,0.1929,0.196,0.2032,0.2068,0.2141,0.22,0.2228,0.2325,0.2399,0.2451,0.2513,0.2502,0.2529,0.252,0.2356,0.2337,0.2454,0.2448,0.2505,0.2504,0.2504,0.2503,0.2503,0,0.1743,0.1761,0.1825,0.1845,0.1872,0.1923,0.1959,0.2041,0.2084,0.2199,0.2229,0.2324,0.2369,0.2456,0.2472,0.2503,0.2524,0.2359,0.2297,0.2461,0.2457,0.2452,0.2447,0.2149,0.2145,0.2142,0.214,0,0.1704,0.1731,0.176,0.1796,0.1833,0.1871,0.1931,0.1954,0.206,0.2113,0.2185,0.2229,0.233,0.2302,0.2352,0.2342,0.2346,0.2304,0.2529,0.217,0.2129,0.2124,0.2129,0.2116,0.2118,0.212,0.2121,0.2122,0.1669,0.1677,0.1715,0.1745,0.1784,0.181,0.1813,0.1879,0.1922,0.1974,0.2073,0.2088,0.2145,0.2144,0.2108,0.2096,0.2241,0.215,0.2157,0.2167,0.2114,0.2074,0.204,0.2042,0.2044,0.2045,0.2047,0,0.1617,0.164,0.1664,0.1689,0.1695,0.1746,0.1787,0.1766,0.1779,0.1858,0.1892,0.178,0.1793,0.1844,0.1806,0.1828,0.1791,0.1751,0.169,0.1718,0.1742,0.1664,0.1472,0.147,0.1468,0.1465,0,0,0.1594,0.1591,0.1602,0.159,0.1612,0.1589,0.1595,0.1577,0.1607,0.1569,0.1576,0.1701,0.1805,0.1601,0.1606,0.1531,0.1601,0.1479,0.1952,0.191,0.193,0.2,0.1916,0,0,0,0,0]},{"header":{"parameterUnit":"m.s-1","parameterCategory":2,"la1":30.2991,"la2":30.254,"lo1":-89.0895,"lo2":-89.0444,"dy":0.0017,"dx":0.0017,"nx":28,"ny":28,"refTime":"2023-10-08T09:00:00:Z","depth":"2","parameterNumber":3,"parameterNumberName":"V-component_of_CURRENTS"},"data":[0,0,0,0,0,0,0,0,0,0,0,0,0,0,0,0,0,0,0,0,0,0,0,0,0,0,0,0,0,0,0,0,0,0,0,0,0,0,0,0,0,0,0,0,0,0,0,0,0,0,0,0,0,0,0,0,0,0,-0.0032,-0.0033,0,-0.0118,-0.0119,-0.012,-0.0195,-0.0196,-0.0197,-0.0198,-0.0289,-0.029,-0.0292,0,0,0,0,0,0,0,0,0,0,0,0,0,0.0017,0.0017,-0.0032,-0.0033,-0.0034,-0.0118,-0.0119,-0.012,-0.0195,-0.0196,-0.0197,-0.0199,-0.0288,-0.029,-0.0292,0,0,0,0,0,0,0,0,0,0,0,0,0,-0.0029,0.0017,-0.0031,-0.0083,-0.0088,-0.0118,-0.0119,-0.012,-0.0195,-0.0196,-0.0198,-0.0199,-0.0288,-0.029,-0.0292,-0.0275,0,0,-0.0299,-0.03,0,0,0,0,0,0,0,0,-0.0026,-0.003,-0.0074,-0.0079,-0.0086,-0.0149,-0.0135,-0.0173,-0.0194,-0.0153,-0.0198,-0.02,-0.0242,-0.0248,-0.0259,-0.0279,-0.0283,-0.0299,-0.03,-0.0301,-0.0302,0,0,0,0,0,0,0,-0.0023,-0.0027,-0.0064,-0.0075,-0.0082,-0.0119,-0.0127,-0.0143,-0.0187,-0.0156,-0.0163,-0.0174,-0.0245,-0.0256,-0.0261,-0.0285,-0.0299,-0.0301,-0.0302,-0.0303,-0.0369,-0.0369,0,0,0,0,0,0,-0.0011,-0.0024,-0.0062,-0.0067,-0.0061,-0.0119,-0.0127,-0.0126,-0.0187,-0.0198,-0.0173,-0.0177,-0.0252,-0.0259,-0.0265,-0.0298,-0.0301,-0.0303,-0.0304,-0.0368,-0.0369,-0.0369,0,0,0,0,0,0,-0.0009,-0.0013,-0.0058,-0.005,-0.0058,-0.0118,-0.0116,-0.0127,-0.0147,-0.0199,-0.0211,-0.0183,-0.0253,-0.0262,-0.029,-0.03,-0.0304,-0.0306,-0.0368,-0.0368,-0.0369,-0.0332,0,0,0,0,0,0,-0.0007,-0.0011,-0.0012,-0.0048,-0.0058,-0.0075,-0.0115,-0.0127,-0.0152,-0.0159,-0.0211,-0.0221,-0.0255,-0.0286,-0.0292,-0.0303,-0.0308,-0.0367,-0.0368,-0.0369,-0.0333,-0.0331,-0.033,0,0,0,0,0,-0.0005,-0.0,-0.0011,-0.0017,-0.0055,-0.0075,-0.0083,-0.013,-0.0151,-0.0154,-0.0195,-0.022,-0.0296,-0.0287,-0.0294,-0.0307,-0.0367,-0.0368,-0.0369,-0.0333,-0.0332,-0.033,0,0,0,0,0,0,0.0016,-0.0009,-0.0021,-0.0026,-0.0047,-0.0088,-0.0097,-0.0124,-0.0158,-0.0168,-0.0215,-0.0227,-0.0259,-0.0283,-0.0273,-0.033,-0.0339,-0.0341,-0.031,-0.0309,-0.0307,-0.0275,-0.031,0,0,0,0,0,0.0024,0.0024,-0.0005,-0.0008,-0.0013,-0.0051,-0.0067,-0.0096,-0.0129,-0.0147,-0.0185,-0.0228,-0.0265,-0.0286,-0.0318,-0.0337,-0.0349,-0.0354,-0.0353,-0.0352,-0.0331,-0.0367,-0.0366,-0.0372,-0.0372,-0.0372,0,0,0.0031,0.0017,0.0016,-0.0003,-0.002,-0.0026,-0.0064,-0.0082,-0.0095,-0.0148,-0.0176,-0.0219,-0.0268,-0.0301,-0.0318,-0.0324,-0.0356,-0.0353,-0.0351,-0.0331,-0.0367,-0.0367,-0.0366,-0.0373,-0.0373,-0.0373,0,0,0.0049,0.004,0.0046,0.0035,0.001,-0.0011,-0.0012,-0.005,-0.0074,-0.01,-0.0151,-0.0191,-0.0243,-0.0284,-0.0311,-0.0315,-0.0345,-0.034,-0.0309,-0.0344,-0.0343,-0.0343,-0.035,-0.0351,-0.0342,-0.0342,-0.0342,0,0.0054,0.0065,0.0044,0.0047,0.004,0.0002,0.0008,-0.0017,-0.0065,-0.0079,-0.0104,-0.0188,-0.0231,-0.0274,-0.0287,-0.031,-0.0328,-0.031,-0.034,-0.034,-0.034,-0.0348,-0.0349,-0.0341,-0.0341,-0.0341,-0.0341,0,0.0079,0.0084,0.0091,0.0086,0.0076,0.0077,0.0045,0.0028,-0.0004,-0.0036,-0.0081,-0.0143,-0.0192,-0.0225,-0.0257,-0.0289,-0.03,-0.0331,-0.0339,-0.0337,-0.0346,-0.0348,-0.0338,-0.0339,-0.0339,-0.034,0,0,0.0105,0.0108,0.0111,0.0117,0.0099,0.0095,0.0084,0.0064,0.0059,0.0001,-0.0012,-0.0091,-0.0127,-0.0158,-0.0216,-0.0251,-0.0272,-0.0289,-0.0292,-0.0284,-0.0333,-0.034,-0.0343,-0.0317,-0.0317,-0.0318,-0.0336,0,0.0133,0.0153,0.0144,0.0162,0.0174,0.0145,0.0142,0.0114,0.0084,0.0061,-0.0009,-0.0045,-0.0103,-0.0131,-0.0175,-0.0247,-0.0276,-0.0262,-0.0344,-0.0346,-0.0344,-0.0345,-0.0327,-0.0343,-0.0337,-0.0338,-0.0338,0,0.0164,0.0175,0.0201,0.0209,0.0213,0.0213,0.0209,0.0198,0.0158,0.013,0.0082,0.0032,-0.0028,-0.0079,-0.0181,-0.0174,-0.024,-0.0296,-0.0299,-0.0315,-0.0356,-0.0347,-0.0346,-0.0341,-0.0341,-0.034,-0.034,0,0.02,0.0215,0.024,0.0242,0.0243,0.0247,0.0244,0.0219,0.0222,0.0176,0.0172,0.009,0.0056,-0.0041,-0.0153,-0.0171,-0.0259,-0.03,-0.0363,-0.0364,-0.0366,-0.0366,-0.0362,-0.0362,-0.0362,-0.0362,-0.0362,0,0.0239,0.0257,0.0259,0.0274,0.0301,0.0285,0.0307,0.0288,0.0279,0.0293,0.021,0.0208,0.0062,-0.0008,-0.0121,-0.0237,-0.0235,-0.0342,-0.037,-0.0353,-0.0352,-0.0367,-0.0367,-0.0362,-0.0362,-0.0362,-0.0362,0,0.0275,0.0277,0.0306,0.0316,0.032,0.0337,0.0354,0.0374,0.0352,0.0369,0.0361,0.0301,0.0212,0.0071,-0.0076,-0.0182,-0.0302,-0.0346,-0.03,-0.0322,-0.0387,-0.0385,-0.0408,-0.0408,-0.0409,-0.0409,-0.0409,0,0.0296,0.0316,0.0339,0.036,0.0367,0.0388,0.0411,0.0405,0.0434,0.0433,0.0455,0.0387,0.035,0.014,-0.0063,-0.0248,-0.0285,-0.0353,-0.0387,-0.0367,-0.0392,-0.039,-0.0388,-0.0372,-0.0371,-0.0371,-0.0371,0,0.0341,0.0346,0.0372,0.0414,0.0444,0.0476,0.0511,0.0549,0.0554,0.0578,0.0611,0.0588,0.039,0.0209,-0.0053,-0.0184,-0.0324,-0.0357,-0.0356,-0.0364,-0.0335,-0.0359,-0.0358,-0.0371,-0.0371,-0.0371,-0.0371,-0.0371,0.0373,0.0399,0.0433,0.0473,0.0509,0.0564,0.0607,0.066,0.0722,0.0768,0.0738,0.0707,0.049,0.0165,-0.0068,-0.0316,-0.0311,-0.0397,-0.0396,-0.0395,-0.0389,-0.0364,-0.0401,-0.0401,-0.0402,-0.0402,-0.0402,0,0.0418,0.0442,0.0488,0.0539,0.0591,0.0596,0.0675,0.073,0.0821,0.0849,0.087,0.0685,0.0472,0.0218,-0.0149,-0.0366,-0.039,-0.0429,-0.0412,-0.0411,-0.041,-0.0405,-0.0421,-0.0422,-0.0423,-0.0423,0,0,0.0442,0.0495,0.0517,0.0601,0.0637,0.0713,0.0762,0.0848,0.0891,0.0935,0.0915,0.0859,0.055,0.0291,-0.0009,-0.022,-0.0268,-0.0261,-0.0223,-0.0168,-0.0165,-0.0369,-0.0356,0,0,0,0,0]}],[{"header":{"parameterUnit":"m.s-1","parameterCategory":2,"la1":30.2991,"la2":30.254,"lo1":-89.0895,"lo2":-89.0444,"dy":0.0017,"dx":0.0017,"nx":28,"ny":28,"refTime":"2023-10-08T09:00:00:Z","depth":"4","parameterNumber":2,"parameterNumberName":"U-component_of_CURRENTS"},"data":[0,0,0,0,0,0,0,0,0,0,0,0,0,0,0,0,0,0,0,0,0,0,0,0,0,0,0,0,0,0,0,0,0,0,0,0,0,0,0,0,0,0,0,0,0,0,0,0,0,0,0,0,0,0,0,0,0,0,0.1034,0.1034,0,0.1047,0.1047,0.1047,0.1086,0.1087,0.1088,0.1089,0.113,0.113,0.113,0,0,0,0,0,0,0,0,0,0,0,0,0,0.102,0.1021,0.1034,0.1035,0.1035,0.1047,0.1047,0.1047,0.1086,0.1087,0.1088,0.1089,0.113,0.113,0.113,0,0,0,0,0,0,0,0,0,0,0,0,0,0.1028,0.1021,0.1034,0.1056,0.1059,0.1047,0.1047,0.1047,0.1085,0.1087,0.1088,0.109,0.1129,0.113,0.113,0.1102,0,0,0.1131,0.1131,0,0,0,0,0,0,0,0,0.1027,0.1028,0.1053,0.1055,0.1057,0.1067,0.1057,0.1067,0.1085,0.1074,0.1089,0.109,0.1111,0.1113,0.111,0.1104,0.1106,0.1131,0.1131,0.1131,0.1131,0,0,0,0,0,0,0,0.1027,0.1028,0.1038,0.1053,0.1056,0.1058,0.106,0.1059,0.1084,0.1075,0.1078,0.1081,0.1113,0.1109,0.1111,0.1107,0.1131,0.1131,0.1131,0.1131,0.12,0.1202,0,0,0,0,0,0,0.1027,0.1027,0.1038,0.1038,0.1047,0.1057,0.106,0.1062,0.1083,0.1088,0.108,0.1083,0.1108,0.1111,0.1113,0.1179,0.1131,0.1131,0.1132,0.1198,0.12,0.1202,0,0,0,0,0,0,0.1027,0.1028,0.1037,0.1034,0.1036,0.1056,0.1057,0.1061,0.1085,0.1087,0.1092,0.1103,0.111,0.1113,0.1158,0.1177,0.1132,0.1132,0.1197,0.1199,0.1201,0.1248,0,0,0,0,0,0,0.1026,0.1028,0.1042,0.1034,0.1036,0.1052,0.1056,0.106,0.1083,0.1088,0.1107,0.1111,0.1111,0.1158,0.1158,0.1177,0.1132,0.1194,0.1198,0.1201,0.1244,0.1252,0.1258,0,0,0,0,0,0.1026,0.1035,0.1042,0.1044,0.105,0.1053,0.1054,0.1072,0.1083,0.1098,0.1128,0.1112,0.1177,0.116,0.116,0.1178,0.1193,0.1197,0.12,0.1241,0.125,0.1258,0,0,0,0,0,0,0.1038,0.104,0.1047,0.1058,0.1066,0.106,0.1078,0.1083,0.1114,0.1133,0.1133,0.1139,0.1187,0.1179,0.1159,0.121,0.1182,0.1186,0.1213,0.1221,0.1228,0.1238,0.1132,0,0,0,0,0,0.1045,0.1056,0.1055,0.1068,0.1075,0.1079,0.1087,0.11,0.1118,0.1133,0.1154,0.1177,0.1195,0.1208,0.1226,0.1247,0.1243,0.1261,0.1268,0.1274,0.1284,0.1298,0.1307,0.1215,0.1215,0.1214,0,0,0.1055,0.1057,0.1066,0.1073,0.1082,0.109,0.1089,0.1112,0.1127,0.1132,0.1183,0.1206,0.121,0.1247,0.1266,0.1246,0.1299,0.1278,0.1283,0.129,0.1303,0.1312,0.132,0.1217,0.1217,0.1216,0,0,0.1067,0.1082,0.1092,0.1099,0.1118,0.1119,0.113,0.1148,0.1172,0.1211,0.1227,0.1273,0.1292,0.131,0.1312,0.1365,0.134,0.1367,0.1401,0.1415,0.1423,0.1429,0.1436,0.1443,0.1363,0.1363,0.1364,0,0.1082,0.1087,0.1097,0.1105,0.1115,0.1133,0.1145,0.1162,0.12,0.1226,0.1241,0.1307,0.132,0.1352,0.1384,0.138,0.1381,0.1365,0.1423,0.1429,0.1435,0.1441,0.1447,0.1366,0.1366,0.1366,0.1365,0,0.1087,0.1103,0.1112,0.1126,0.1141,0.1157,0.1177,0.1219,0.1253,0.1269,0.1335,0.1367,0.1407,0.1415,0.1418,0.1465,0.1451,0.1433,0.1397,0.1447,0.145,0.1456,0.137,0.1369,0.1368,0.1368,0,0,0.109,0.1111,0.1118,0.1128,0.1155,0.1164,0.121,0.1244,0.128,0.1334,0.1378,0.1433,0.1465,0.1474,0.1486,0.1505,0.1556,0.1495,0.1494,0.1494,0.1586,0.1506,0.1505,0.1544,0.1546,0.1547,0.1571,0,0.1093,0.1109,0.1121,0.1146,0.1156,0.1193,0.1226,0.1269,0.1315,0.137,0.1413,0.1467,0.1476,0.1515,0.1536,0.1556,0.1574,0.1551,0.1545,0.1545,0.1462,0.151,0.1551,0.1576,0.1577,0.1578,0.1579,0,0.109,0.1102,0.1125,0.1157,0.1167,0.1193,0.1261,0.1294,0.1368,0.1408,0.1472,0.1507,0.1571,0.1566,0.1616,0.1601,0.1608,0.1611,0.1611,0.1526,0.1477,0.1517,0.1589,0.1588,0.1588,0.1587,0.1586,0,0.1075,0.1104,0.1124,0.1134,0.1174,0.1213,0.1251,0.1321,0.1358,0.1451,0.1492,0.1555,0.1606,0.1626,0.1654,0.1644,0.1687,0.1664,0.1594,0.1588,0.1629,0.1622,0.1696,0.1696,0.1696,0.1696,0.1695,0,0.1057,0.1075,0.1127,0.1136,0.1175,0.1216,0.1272,0.1326,0.1402,0.1444,0.1519,0.1562,0.1628,0.166,0.1667,0.165,0.1697,0.1614,0.1594,0.1649,0.1644,0.1633,0.1626,0.1696,0.1696,0.1696,0.1696,0,0.1026,0.1058,0.1084,0.1143,0.1166,0.1203,0.1278,0.1314,0.1398,0.1462,0.15,0.1586,0.1637,0.167,0.1708,0.1661,0.1655,0.1633,0.1698,0.1679,0.1543,0.1538,0.156,0.1558,0.1555,0.1554,0.1552,0,0.1004,0.1018,0.1086,0.1107,0.1138,0.1195,0.1231,0.1313,0.1346,0.1463,0.1481,0.1575,0.1622,0.1593,0.1644,0.1642,0.1625,0.1603,0.1575,0.1553,0.1532,0.153,0.1528,0.1549,0.1548,0.1548,0.1547,0,0.0962,0.1002,0.1027,0.1076,0.1118,0.1145,0.1205,0.1218,0.1313,0.1399,0.1436,0.1472,0.1519,0.1546,0.1555,0.1551,0.1607,0.158,0.1584,0.1558,0.154,0.152,0.1521,0.154,0.1541,0.1542,0.1542,0,0.0939,0.0949,0.0995,0.1027,0.1074,0.108,0.1115,0.115,0.1191,0.1315,0.133,0.142,0.1507,0.15,0.1508,0.1501,0.1484,0.1428,0.1439,0.1448,0.1402,0.1362,0.1299,0,0,0,0,0,0.0902,0.0907,0.0937,0.096,0.1003,0.1027,0.1086,0.1122,0.1214,0.121,0.1265,0.1308,0.1346,0.139,0.1362,0.1468,0.1489,0.143,0.1429,0.1499,0.1508,0.1465,0,0,0,0,0,0,0.0875,0.0903,0.0913,0.0898,0.0903,0.0932,0.0967,0.1028,0.1022,0.1128,0.1148,0.1237,0.1283,0.135,0.1341,0.1355,0.1329,0.1491,0.1488,0.1494,0.1502,0.1509,0.1468,0,0,0,0,0]},{"header":{"parameterUnit":"m.s-1","parameterCategory":2,"la1":30.2991,"la2":30.254,"lo1":-89.0895,"lo2":-89.0444,"dy":0.0017,"dx":0.0017,"nx":28,"ny":28,"refTime":"2023-10-08T09:00:00:Z","depth":"4","parameterNumber":3,"parameterNumberName":"V-component_of_CURRENTS"},"data":[0,0,0,0,0,0,0,0,0,0,0,0,0,0,0,0,0,0,0,0,0,0,0,0,0,0,0,0,0,0,0,0,0,0,0,0,0,0,0,0,0,0,0,0,0,0,0,0,0,0,0,0,0,0,0,0,0,0,0.0216,0.0216,0,0.0205,0.0205,0.0205,0.0196,0.0196,0.0196,0.0196,0.0169,0.0168,0.0168,0,0,0,0,0,0,0,0,0,0,0,0,0,0.022,0.022,0.0216,0.0216,0.0216,0.0205,0.0205,0.0205,0.0196,0.0196,0.0196,0.0196,0.0169,0.0169,0.0168,0,0,0,0,0,0,0,0,0,0,0,0,0,0.0214,0.022,0.0216,0.0211,0.0211,0.0205,0.0205,0.0204,0.0196,0.0196,0.0196,0.0196,0.017,0.0169,0.0168,0.016,0,0,0.0164,0.0164,0,0,0,0,0,0,0,0,0.0214,0.0213,0.0212,0.0211,0.0211,0.0203,0.0197,0.0189,0.0196,0.02,0.0196,0.0196,0.018,0.0178,0.0174,0.0158,0.0157,0.0164,0.0163,0.0163,0.0163,0,0,0,0,0,0,0,0.0214,0.0214,0.021,0.0212,0.0211,0.0207,0.0206,0.0195,0.0189,0.02,0.0199,0.02,0.0179,0.0175,0.0173,0.0157,0.0164,0.0163,0.0162,0.0162,0.0137,0.0137,0,0,0,0,0,0,0.0219,0.0214,0.021,0.021,0.0214,0.0207,0.0206,0.0204,0.0189,0.0187,0.02,0.02,0.0177,0.0175,0.0172,0.0171,0.0163,0.0162,0.0161,0.0137,0.0137,0.0137,0,0,0,0,0,0,0.0219,0.0218,0.0211,0.0213,0.0212,0.0207,0.0205,0.0204,0.0203,0.019,0.0187,0.0201,0.0177,0.0174,0.0166,0.0169,0.0161,0.016,0.0137,0.0137,0.0137,0.0161,0,0,0,0,0,0,0.0219,0.0218,0.022,0.0213,0.0212,0.0209,0.0205,0.0204,0.0204,0.0203,0.0189,0.0187,0.0177,0.0168,0.0165,0.0167,0.0159,0.0137,0.0137,0.0137,0.0161,0.0162,0.0164,0,0,0,0,0,0.0219,0.0222,0.022,0.022,0.0214,0.021,0.0208,0.0204,0.0204,0.0203,0.0195,0.0187,0.0166,0.0167,0.0164,0.0166,0.0137,0.0137,0.0137,0.016,0.0162,0.0164,0,0,0,0,0,0,0.0222,0.0221,0.0219,0.022,0.0217,0.0209,0.0211,0.0207,0.02,0.0202,0.0187,0.0184,0.0178,0.0168,0.0169,0.0158,0.015,0.015,0.0169,0.017,0.0172,0.0168,0.0158,0,0,0,0,0,0.0224,0.0229,0.0223,0.0225,0.0224,0.0218,0.0217,0.0214,0.0208,0.0205,0.0195,0.0185,0.0174,0.017,0.0159,0.0154,0.0124,0.0152,0.0154,0.0155,0.0149,0.0103,0.01,0.0137,0.0137,0.0137,0,0,0.0226,0.0227,0.0229,0.0226,0.0224,0.0227,0.0217,0.0219,0.0222,0.0203,0.0203,0.0189,0.0174,0.0168,0.0164,0.0161,0.013,0.0155,0.0157,0.015,0.0103,0.0099,0.0096,0.0137,0.0137,0.0137,0,0,0.0235,0.0233,0.0241,0.024,0.0241,0.0237,0.0239,0.0232,0.023,0.0227,0.0214,0.0199,0.0189,0.0174,0.0167,0.0169,0.0139,0.0169,0.0175,0.0131,0.0127,0.0124,0.0085,0.0078,0.0172,0.0172,0.0172,0,0.0238,0.0247,0.0241,0.0249,0.0254,0.0244,0.0253,0.0247,0.0239,0.0234,0.0232,0.0202,0.019,0.0174,0.0176,0.0172,0.0142,0.0171,0.0132,0.0128,0.0124,0.0085,0.0076,0.0173,0.0173,0.0173,0.0172,0,0.0253,0.0261,0.0266,0.0274,0.0276,0.0283,0.0278,0.0275,0.0271,0.0261,0.0243,0.022,0.0201,0.0197,0.0188,0.0157,0.0144,0.0138,0.0127,0.0121,0.0081,0.0072,0.0174,0.0174,0.0174,0.0173,0,0,0.0256,0.0274,0.0276,0.0289,0.0293,0.0298,0.0301,0.0296,0.0296,0.0277,0.0267,0.0242,0.0221,0.021,0.0191,0.0155,0.0104,0.0137,0.0134,0.0098,0.0005,0.0016,0.0006,0.0089,0.0088,0.0086,-0.0011,0,0.0271,0.0296,0.0299,0.0322,0.0335,0.033,0.0335,0.0329,0.0317,0.0302,0.0265,0.025,0.0229,0.0221,0.0178,0.0126,0.008,0.0131,0.0016,0.0012,0.0022,-0.0004,0.0082,-0.0018,-0.002,-0.0021,-0.0023,0,0.0286,0.0303,0.0332,0.0353,0.0358,0.0369,0.0375,0.0378,0.0351,0.0339,0.0305,0.0274,0.0223,0.0206,0.0095,0.0128,0.0064,0.0018,0.0013,0.0007,0.0006,-0.0012,-0.004,-0.0038,-0.0037,-0.0036,-0.0035,0,0.0302,0.0326,0.0353,0.0362,0.0381,0.0391,0.04,0.0389,0.0395,0.036,0.0353,0.0282,0.0254,0.016,0.0067,0.0076,-0.0061,-0.0059,-0.0115,-0.0115,-0.0106,-0.0101,-0.0154,-0.0154,-0.0153,-0.0153,-0.0153,0,0.032,0.0341,0.0364,0.0381,0.041,0.0416,0.0441,0.0433,0.0426,0.0432,0.0374,0.0356,0.0239,0.0153,0.006,-0.0055,-0.0071,-0.0126,-0.0144,-0.0092,-0.0085,-0.0113,-0.0107,-0.0157,-0.0156,-0.0155,-0.0155,0,0.0333,0.0349,0.0384,0.0412,0.0421,0.0445,0.0478,0.0492,0.048,0.0484,0.0475,0.0401,0.0297,0.0172,0.002,-0.0052,-0.0168,-0.0209,-0.0148,-0.0158,-0.0193,-0.0184,-0.0281,-0.0282,-0.0282,-0.0283,-0.0283,0,0.0343,0.0364,0.0407,0.0431,0.0447,0.0483,0.0509,0.0518,0.0534,0.0515,0.0514,0.0423,0.036,0.0154,0.002,-0.0169,-0.019,-0.0258,-0.0227,-0.0201,-0.0209,-0.0199,-0.019,-0.0284,-0.0284,-0.0284,-0.0284,0,0.0363,0.0382,0.0411,0.0458,0.0494,0.0534,0.057,0.0585,0.0596,0.0585,0.0547,0.0445,0.0325,0.0168,0.0015,-0.0117,-0.0216,-0.0263,-0.0262,-0.0234,-0.0205,-0.021,-0.0201,-0.0285,-0.0285,-0.0285,-0.0285,0,0.0379,0.0401,0.0442,0.048,0.0528,0.057,0.0589,0.0608,0.0622,0.0601,0.0587,0.0462,0.0388,0.0193,0.0055,-0.0077,-0.0103,-0.0142,-0.0149,-0.0149,-0.0077,-0.0017,-0.0067,0,0,0,0,0,0.0391,0.0417,0.0458,0.0505,0.0554,0.0581,0.0622,0.0638,0.0647,0.0629,0.0611,0.0504,0.0312,0.0225,0.0096,0.004,-0.0134,-0.0116,-0.0184,-0.0294,-0.0292,-0.0229,0,0,0,0,0,0,0.0401,0.0442,0.0459,0.0517,0.0551,0.0608,0.0638,0.0645,0.0633,0.0623,0.0523,0.0474,0.0283,0.0387,0.0095,0.0054,-0.0006,-0.0208,-0.021,-0.0295,-0.0293,-0.0292,-0.0226,0,0,0,0,0]}]]